sat.trackr.live / text

‹ back to catalog

STARLINK-34708

NORAD 65062 · 2025-165G

PAYLOAD ACTIVE UNKNOWN

§ Identity

Operator
Country
US
Launch date
2025-07-31
Launch site
AFWTR
Launch vehicle
Mass (kg)
RCS (m²)

Purposes: comms

External: N2YO · Heavens-Above · Gunter

§ Orbital elements

Epoch: 2026-05-25T05:00:17.640864Z

Period
95.64 min
Inclination
97.4473°
Eccentricity
0.0002908
Mean motion
15.05657168 rev/d
Perigee alt
547.5 km
Apogee alt
551.5 km
Semi-major
6,927.6 km
B*
4.9345e-4
RAAN
222.2719°
Arg perigee
129.7176°
Mean anomaly
230.4307°
Rev number
4,630

§ Raw data

STARLINK-347081 65062U 25165G   26145.20853751  .00007070  00000+0  49345-3 0  99982 65062  97.4473 222.2719 0002908 129.7176 230.4307 15.05657168 46308

JSON: /api/v1/satellites/65062 · /tle

For live sub-satellite position, see the globe view (requires WebGL).

§ Visibility from observer

Set your observer location to see the next 7 days of passes ≥ 10°. The values pass through the URL so the page stays shareable.

No JS? Fill the form by hand. The geolocation button needs JavaScript.